Location: Caltech
(34.1382°N, 118.1253°W)
Time: 22:19:18
(UTC-07:00)

CZ-2C R/B - Visible Passes

Search period start: 24 June 2016 00:00
Search period end: 04 July 2016 00:00
Orbit: 704 x 908 km, 98.2° (Epoch: 24 June)

Date Brightness Start Highest point End Pass type
(mag) Time Alt. Az. Time Alt. Az. Time Alt. Az.
24 Jun 5.6 00:01:35 12° ENE 00:02:37 12° ENE 00:04:54 10° NE visible
24 Jun 3.6 01:42:39 64° NNW 01:42:39 64° NNW 01:47:29 10° NNW visible
25 Jun 3.8 01:17:39 56° NE 01:17:39 56° NE 01:22:40 10° N visible
25 Jun 5.2 02:58:43 15° WNW 02:58:43 15° WNW 03:00:40 10° NW visible
26 Jun 4.4 00:52:39 35° ENE 00:52:39 35° ENE 00:57:36 10° N visible
26 Jun 4.7 02:33:44 25° WNW 02:33:44 25° WNW 02:37:06 10° NW visible
27 Jun 5.0 00:27:40 22° ENE 00:27:57 22° ENE 00:32:09 10° NNE visible
27 Jun 4.1 02:08:44 40° WNW 02:08:44 40° WNW 02:12:54 10° NNW visible
28 Jun 5.5 00:02:40 12° ENE 00:03:32 13° ENE 00:05:56 10° NE visible
28 Jun 3.6 01:43:44 60° NNW 01:43:44 60° NNW 01:48:22 10° NNW visible
29 Jun 3.8 01:18:45 56° NE 01:18:45 56° NE 01:23:35 10° N visible
29 Jun 5.3 02:59:49 14° WNW 02:59:49 14° WNW 03:01:24 10° WNW visible
30 Jun 4.4 00:53:46 36° ENE 00:53:46 36° ENE 00:58:30 10° N visible
30 Jun 4.8 02:34:50 23° WNW 02:34:50 23° WNW 02:37:55 10° NW visible
01 Jul 5.0 00:28:47 22° ENE 00:28:52 22° ENE 00:33:05 10° NNE visible
01 Jul 4.2 02:09:51 37° WNW 02:09:51 37° WNW 02:13:46 10° NNW visible
02 Jul 5.5 00:03:48 13° ENE 00:04:26 13° ENE 00:06:53 10° NE visible
02 Jul 3.7 01:44:52 56° NNW 01:44:52 56° NNW 01:49:14 10° NNW visible
03 Jul 3.8 01:19:53 55° NNE 01:19:53 55° NNE 01:24:26 10° N visible
03 Jul 5.4 03:00:57 13° WNW 03:00:57 13° WNW 03:02:06 10° WNW visible
